Weather History for Hallock, MN

Change the Weather History Date:

Monday, January 7, 2013

  Actual Average Record
Temperature  
Mean Temperature 24 °F -  
Max Temperature 33 °F 7 °F 44 °F (2003)
Min Temperature 14 °F -11 °F -37 °F (1976)
Degree Days  
Heating Degree Days 41    
Moisture  
Dew Point 22 °F    
Average Humidity 84    
Maximum Humidity 93    
Minimum Humidity 75    
Precipitation  
Precipitation 0.00 in - - ()
Sea Level Pressure  
Sea Level Pressure 29.68 in    
Wind  
Wind Speed 16 mph (WSW)    
Max Wind Speed 22 mph    
Max Gust Speed -    
Visibility 10 miles    
Events      
Averages and records for this station are not official NWS values.
T = Trace of Precipitation, MM = Missing Value Source: NWS Daily Summary

Daily Weather History Graph

Daily Weather History Graph

Search for Another Location

Airport:

Trip Planner

Search our weather history database for the weather conditions in past years. The results will help you decide how hot, cold, wet, or windy it might be!

Date:

Astronomy

Jan. 07, 2013 Rise Set
Actual Time 8:19 AM CST 4:49 PM CST
Civil Twilight 7:43 AM CST 5:25 PM CST
Nautical Twilight 7:03 AM CST 6:05 PM CST
Astronomical Twilight 6:25 AM CST 6:43 PM CST
Moon 3:39 AM CST (1/7) 1:05 PM CST (1/7)
Length of Visible Light 9h 42m
Length of Day
8h 29m
Waning Crescent, 22% of the Moon is Illuminated
Jan 7
Waning Crescent
Jan 11
New
Jan 18
First Quarter
Jan 26
Full
Feb 3
Last Quarter

Hourly Weather History & Observations

Time (CST) Temp. Windchill Dew Point Humidity Pressure Visibility Wind Dir Wind Speed Gust Speed Precip Events Conditions
12:13 AM 15.8 °F -1.5 °F 12.2 °F 86% 29.64 in 10.0 mi South 20.7 mph - N/A   Scattered Clouds
12:34 AM 17.6 °F 1.7 °F 14.0 °F 86% 29.63 in 10.0 mi South 18.4 mph - N/A   Mostly Cloudy
12:54 AM 17.6 °F 0.9 °F 14.0 °F 86% 29.63 in 10.0 mi South 20.7 mph - N/A   Mostly Cloudy
1:13 AM 17.6 °F 2.2 °F 14.0 °F 86% 29.62 in 10.0 mi South 17.3 mph - N/A   Mostly Cloudy
1:34 AM 17.6 °F 1.3 °F 15.8 °F 93% 29.61 in 10.0 mi South 19.6 mph - N/A   Mostly Cloudy
1:54 AM 17.6 °F 0.9 °F 15.8 °F 93% 29.59 in 10.0 mi South 20.7 mph - N/A   Scattered Clouds
2:34 AM 17.6 °F 0.9 °F 15.8 °F 93% 29.60 in 10.0 mi South 20.7 mph - N/A   Clear
2:54 AM 17.6 °F 1.7 °F 15.8 °F 93% 29.59 in 10.0 mi South 18.4 mph - N/A   Clear
3:14 AM 19.4 °F 3.6 °F 15.8 °F 86% 29.59 in 10.0 mi South 19.6 mph - N/A   Clear
3:34 AM 19.4 °F 3.2 °F 15.8 °F 86% 29.58 in 10.0 mi South 20.7 mph - N/A   Clear
3:54 AM 17.6 °F 2.2 °F 15.8 °F 93% 29.58 in 10.0 mi South 17.3 mph - N/A   Clear
4:14 AM 17.6 °F 2.2 °F 15.8 °F 93% 29.58 in 10.0 mi South 17.3 mph - N/A   Clear
4:34 AM 19.4 °F 4.1 °F 15.8 °F 86% 29.56 in 10.0 mi SSW 18.4 mph - N/A   Clear
4:54 AM 17.6 °F 1.7 °F 15.8 °F 93% 29.56 in 10.0 mi SSW 18.4 mph - N/A   Clear
5:14 AM 19.4 °F 4.5 °F 17.6 °F 93% 29.56 in 10.0 mi SSW 17.3 mph - N/A   Clear
5:34 AM 19.4 °F 6.6 °F 15.8 °F 86% 29.56 in 10.0 mi SSW 12.7 mph - N/A   Clear
5:54 AM 17.6 °F 6.4 °F 15.8 °F 93% 29.57 in 10.0 mi SW 9.2 mph - N/A   Clear
6:14 AM 23.0 °F 13.9 °F 19.4 °F 86% 29.57 in 10.0 mi WSW 8.1 mph - N/A   Clear
6:34 AM 24.8 °F 12.4 °F 21.2 °F 86% 29.57 in 10.0 mi WSW 15.0 mph - N/A   Clear
6:54 AM 24.8 °F 13.4 °F 21.2 °F 86% 29.57 in 10.0 mi SW 12.7 mph - N/A   Clear
7:14 AM 24.8 °F 13.4 °F 19.4 °F 80% 29.56 in 10.0 mi SW 12.7 mph - N/A   Clear
7:34 AM 26.6 °F 15.2 °F 23.0 °F 86% 29.55 in 10.0 mi WSW 13.8 mph - N/A   Clear
7:54 AM 26.6 °F 16.2 °F 21.2 °F 80% 29.57 in 10.0 mi SW 11.5 mph - N/A   Clear
8:14 AM 24.8 °F 14.0 °F 21.2 °F 86% 29.58 in 10.0 mi SW 11.5 mph - N/A   Clear
8:34 AM 26.6 °F 15.2 °F 21.2 °F 80% 29.58 in 10.0 mi WSW 13.8 mph - N/A   Mostly Cloudy
8:53 AM 28.4 °F 16.6 °F 24.8 °F 86% 29.59 in 10.0 mi WSW 16.1 mph - N/A   Overcast
9:14 AM 30.2 °F 18.1 °F 26.6 °F 86% 29.59 in 10.0 mi WSW 18.4 mph - N/A   Overcast
9:34 AM 30.2 °F 17.1 °F 26.6 °F 86% 29.60 in 10.0 mi WSW 21.9 mph - N/A   Overcast
9:53 AM 30.2 °F 18.1 °F 26.6 °F 86% 29.61 in 10.0 mi WSW 18.4 mph - N/A   Overcast
10:14 AM 30.2 °F 18.1 °F 26.6 °F 86% 29.63 in 10.0 mi WSW 18.4 mph - N/A   Overcast
10:34 AM 32.0 °F 20.8 °F 26.6 °F 80% 29.64 in 10.0 mi WSW 17.3 mph - N/A   Overcast
10:53 AM 32.0 °F 20.8 °F 26.6 °F 80% 29.65 in 10.0 mi West 17.3 mph - N/A   Overcast
11:34 AM 33.8 °F 22.8 °F 26.6 °F 75% 29.66 in 10.0 mi West 18.4 mph - N/A   Overcast
11:53 AM 33.8 °F 22.5 °F 26.6 °F 75% 29.66 in 10.0 mi West 19.6 mph - N/A   Overcast
12:34 PM 33.8 °F 22.5 °F 26.6 °F 75% 29.66 in 10.0 mi West 19.6 mph - N/A   Overcast
12:54 PM 33.8 °F 22.8 °F 26.6 °F 75% 29.67 in 10.0 mi West 18.4 mph - N/A   Mostly Cloudy
1:14 PM 33.8 °F 22.8 °F 26.6 °F 75% 29.67 in 10.0 mi West 18.4 mph - N/A   Scattered Clouds
1:34 PM 33.8 °F 22.8 °F 26.6 °F 75% 29.67 in 10.0 mi West 18.4 mph - N/A   Scattered Clouds
1:54 PM 33.8 °F 22.8 °F 28.4 °F 81% 29.68 in 10.0 mi West 18.4 mph - N/A   Scattered Clouds
2:14 PM 33.8 °F 23.9 °F 28.4 °F 81% 29.69 in 10.0 mi West 15.0 mph - N/A   Scattered Clouds
2:34 PM 33.8 °F 24.3 °F 28.4 °F 81% 29.70 in 10.0 mi West 13.8 mph - N/A   Scattered Clouds
2:54 PM 33.8 °F 23.5 °F 28.4 °F 81% 29.70 in 10.0 mi West 16.1 mph - N/A   Overcast
3:14 PM 33.8 °F 24.8 °F 26.6 °F 75% 29.71 in 10.0 mi West 12.7 mph - N/A   Mostly Cloudy
3:34 PM 32.0 °F 22.5 °F 26.6 °F 80% 29.72 in 10.0 mi West 12.7 mph - N/A   Scattered Clouds
3:54 PM 30.2 °F 20.2 °F 26.6 °F 86% 29.74 in 10.0 mi West 12.7 mph - N/A   Scattered Clouds
4:14 PM 30.2 °F 20.8 °F 24.8 °F 80% 29.75 in 10.0 mi West 11.5 mph - N/A   Clear
4:34 PM 26.6 °F 16.8 °F 23.0 °F 86% 29.75 in 10.0 mi West 10.4 mph - N/A   Clear
5:13 PM 26.6 °F 19.1 °F 24.8 °F 93% 29.76 in 10.0 mi West 6.9 mph - N/A   Overcast
5:34 PM 26.6 °F 19.1 °F 24.8 °F 93% 29.76 in 10.0 mi West 6.9 mph - N/A   Overcast
5:54 PM 28.4 °F 20.4 °F 24.8 °F 86% 29.77 in 10.0 mi West 8.1 mph - N/A   Overcast
6:14 PM 28.4 °F 18.5 °F 24.8 °F 86% 29.77 in 10.0 mi WSW 11.5 mph - N/A   Overcast
6:34 PM 28.4 °F 19.1 °F 24.8 °F 86% 29.78 in 10.0 mi WSW 10.4 mph - N/A   Overcast
6:54 PM 26.6 °F 16.2 °F 23.0 °F 86% 29.78 in 10.0 mi WSW 11.5 mph - N/A   Overcast
7:14 PM 26.6 °F 15.7 °F 23.0 °F 86% 29.79 in 10.0 mi WSW 12.7 mph - N/A   Overcast
7:34 PM 26.6 °F 15.7 °F 23.0 °F 86% 29.79 in 10.0 mi WSW 12.7 mph - N/A   Overcast
7:54 PM 26.6 °F 14.7 °F 23.0 °F 86% 29.79 in 10.0 mi WSW 15.0 mph - N/A   Overcast
8:14 PM 26.6 °F 16.2 °F 21.2 °F 80% 29.80 in 10.0 mi WSW 11.5 mph - N/A   Overcast
8:34 PM 26.6 °F 15.7 °F 21.2 °F 80% 29.80 in 10.0 mi WSW 12.7 mph - N/A   Overcast
8:54 PM 26.6 °F 15.2 °F 21.2 °F 80% 29.80 in 10.0 mi WSW 13.8 mph - N/A   Overcast
9:14 PM 26.6 °F 15.7 °F 21.2 °F 80% 29.81 in 10.0 mi WSW 12.7 mph - N/A   Overcast
9:34 PM 26.6 °F 16.2 °F 21.2 °F 80% 29.82 in 10.0 mi WSW 11.5 mph - N/A   Overcast
9:54 PM 26.6 °F 16.2 °F 21.2 °F 80% 29.81 in 10.0 mi WSW 11.5 mph - N/A   Overcast
10:14 PM 26.6 °F 17.5 °F 21.2 °F 80% 29.82 in 10.0 mi WSW 9.2 mph - N/A   Overcast
10:34 PM 26.6 °F 16.2 °F 21.2 °F 80% 29.81 in 10.0 mi WSW 11.5 mph - N/A   Overcast
10:54 PM 24.8 °F 14.0 °F 19.4 °F 80% 29.81 in 10.0 mi WSW 11.5 mph - N/A   Overcast
11:14 PM 21.2 °F 10.1 °F 17.6 °F 86% 29.81 in 10.0 mi SW 10.4 mph - N/A   Scattered Clouds
11:34 PM 19.4 °F 9.5 °F 15.8 °F 86% 29.81 in 10.0 mi SW 8.1 mph - N/A   Clear
11:54 PM 14.0 °F 3.9 °F 12.2 °F 93% 29.81 in 10.0 mi SSW 6.9 mph - N/A   Clear